« Back
NWS Peachtree City, Ga » Text Product » GA Regional Weather Roundup


Printer-friendly Version
Current Version              Previous Versions:   1  2  3  4  5  6  7  8  9  

Regional Weather Roundup

168
ASUS42 KFFC 251603
RWRGA
WEATHER ROUNDUP FOR GEORGIA
NATIONAL WEATHER SERVICE PEACHTREE CITY GA
1200 PM EDT WED MAY 25 2016

NOTE: "FAIR" INDICATES FEW OR NO CLOUDS BELOW 12,000 FEET WITH NO
SIGNIFICANT WEATHER AND/OR OBSTRUCTIONS TO VISIBILITY.

* = USE WITH CAUTION. THE STATIONS MARKED WITH AN ASTERISK MAY NOT
REPORT WEATHER SUCH AS PRECIPITATION, FOG, OR THUNDER AND ARE NOT
QUALITY CONTROLLED BY NWS.

THE REMARK "TC" DENOTES TEMPERATURE READING IN DEGREES CELSIUS.

GAZ001>058-251700-
NORTH GEORGIA

CITY           SKY/WX    TMP DP  RH WIND       PRES   REMARKS
ATLANTA        MOSUNNY   82  53  36 S9        30.25F
ATHENS         SUNNY     83  58  42 SW6       30.26F
CHAMBLEE       SUNNY     83  52  34 S9        30.25F
PEACHTREE CITY SUNNY     83  55  38 VRB6      30.25F
ROME           SUNNY     81  58  45 VRB5      30.22S
WEST ATLANTA   SUNNY     82  53  36 S7        30.25S
GAINESVILLE    SUNNY     79  53  40 VRB6      30.29S
CARTERSVILLE   SUNNY     83  56  39 VRB5      30.24S


CITY           SKY/WX    TMP DP  RH WIND       PRES   REMARKS
DALTON*        CLOUDY    79  59  50 S5        30.24R
LAWRENCEVILLE* SUNNY     81  55  41 SW7       30.27S
MARIETTA       MOSUNNY   82  54  38 S8        30.25F
KENNESAW*      SUNNY     81  55  41 SW6       30.20F
CANTON*        SUNNY     79  43  27 CALM      30.27S
BLAIRSVILLE*     N/A    N/A N/A N/A MISG      30.28F
$$

GAZ059>098-102>109-251700-
CENTRAL GEORGIA

CITY           SKY/WX    TMP DP  RH WIND       PRES   REMARKS
AUGUSTA-BUSH   SUNNY     84  59  42 VRB3      30.24S
AUGUSTA-DANIEL SUNNY    N/A N/A N/A MISG      30.26S
COLUMBUS       SUNNY     81  57  43 SW7       30.24S
MACON          SUNNY     83  62  49 SW8       30.25S
ROBINS AFB     SUNNY     83  63  49 VRB7      30.24F


CITY           SKY/WX    TMP DP  RH WIND       PRES   REMARKS
LAGRANGE*      SUNNY     86  62  44 SW6       30.24F
SYLVANIA*      SUNNY     86  60  40 CALM      30.26S
MILLEDGEVILLE* SUNNY     82  61  47 E3        30.26S
$$

GAZ099>101-110>166-251700-
SOUTH GEORGIA

CITY           SKY/WX    TMP DP  RH WIND       PRES   REMARKS
SAVANNAH       MOSUNNY   84  60  44 SW6       30.25S
VALDOSTA       SUNNY     85  61  44 VRB7      30.24R
ALMA           SUNNY     84  60  44 MISG      30.24S
ST SIMONS      SUNNY     81  68  64 SE9       30.25S
FT STEWART     SUNNY     82  64  53 S3        30.23S
ALBANY         MOSUNNY   84  62  47 VRB5      30.25S
HUNTER AFB     SUNNY     84  63  49 VRB6      30.23S
MOODY AFB      MOSUNNY   85  57  37 S9        30.23R
BRUNSWICK      MOSUNNY   86  64  48 SE6       30.26S


CITY           SKY/WX    TMP DP  RH WIND       PRES   REMARKS
BAINBRIDGE*    SUNNY     84  63  48 SE3       30.23S
MOULTRIE*      SUNNY     82  63  51 S3        30.24S
VIDALIA*       SUNNY     82  59  44 SW5       30.25S
WAYCROSS*      SUNNY     85  60  43 SE6       30.24S
DOUGLAS*       SUNNY     86  57  37 SW3       30.26R
$$




USA.gov is the U.S. government's official web portal to all federal, state and local government web resources and services.